Showing default

KINEIS-5C, 62081

Orbit data source: Space-Track

KINEIS-5C, 62081 is a French payload satellite in SSO that was launched on Mon, 25 Nov 2024 UTC via an ELECTRON launch vehicle from the Rocket Lab Launch Complex (RLLC). Payload-class satellites include a variety of spacecraft equipped with specific instruments for various scientific and technological missions. These include communications satellites like Starlink; space stations such as the ISS; scientific satellites like the Hubble; Earth observation satellites from companies like Planet Labs, Umbra, and HawkEye 360; GPS; miniature CubeSats for education and research; and military/defense satellites.

Loading next visibility...
Identifier
62081, 2024-219A
Orbit
SSO
Country
Flag of FRFR
Related business
Manufacturer
KINEIS
Mission
Operational Commercial Communications
Bus & Motor
CUBESAT 16U, Unknown motor
Mass
28 kg wet, 28 kg dry
Launch date (UTC)
2024-11-25 (10 months ago)
Launch vehicle
ELECTRON
Launch site
Rocket Lab Launch Complex (RLLC)
Object type
Payload
Rocket body
Debris
Shape & HBR
Box + 2 Pan + 1 Ant, 0.8 m
Radar Cross Section
0.229 m², Medium (>0.1 m² and < 1m²)

Expand to show TLE details & history
Last TLE update: 18 hours ago

TLE from 18 hours ago
0 KINEIS-5C
1 62081U 24219A   25257.61362581  .00000704  00000-0  11926-3 0  9991
2 62081  97.9813  57.1646 0002141 137.7779 222.3594 14.72291040 43200
Epoch: 2025-09-14T14:43Z
TLE epoch observation values (Epoch: 2025-09-14T14:43:37.269Z)
Latitude
-0.00002°
Longitude
-157.5708°
Altitude
657.885 km
Speed
7.528 km/s
True Right ascension
03h 48m 39s
True Declination
0° 00' 00"
Sunlit
Object was in full shadow at epoch
Visualization orbit readout
Latitude
Unknown
Longitude
Unknown
Altitude
Unknown
Speed
Unknown
Apparent Right ascension
Unknown
Apparent Declination
Unknown
Sunlit
N/A
Visualization observer readout
Local Sidereal Time
01:32:39
Azimuth
Unknown
Elevation
Unknown
Doppler factor
Unknown
Orbital elements
Apogee altitude
652.323 km
Perigee altitude
649.314 km
Semi-major axis
7,028.955 km
Eccentricity
0.00021
Inclination
97.9813°
RAAN
57.1646°
Arg. of periapsis
137.7779°
True anomaly
222.34287°
Mean anomaly
222.3594°
Eccentric anomaly
222.35114°
Mean motion
3.68304 °/min
Orbital period
97.75 mins
BSTAR
0.00011926
Loading maneuver chart data...
Computing Atmospheric mass density...
Loading historical data...
Loading historical data...
Loading historical data...
Loading historical data...
Loading historical data...
Loading historical data...
Loading historical data...

Documentation

Showing up to 5 results
|